Location: ???? ??
(36.0534°N, 43.5630°E)
Time: 00:49:06
(UTC+00:00)

Cosmos 2297 Rocket - Pass Details

Date: 18 September 2019
Orbit: 841 x 842 km, 71.0° (Epoch: 19 October)

Event Time Altitude Azimuth Distance (km) Brightness Sun altitude
Rises 17:28:00 0° 213° (SSW) 3,383 5.4 -27.9°
Reaches altitude 10° 17:30:29 10° 218° (SW) 2,452 4.7 -28.4°
Maximum altitude 17:35:59 53° 295° (WNW) 1,022 2.8 -29.4°
Drops below altitude 10° 17:41:30 10° 12° (NNE) 2,465 4.8 -30.4°
Sets 17:44:02 0° 17° (NNE) 3,403 5.5 -30.8°
